Regional Weather Roundup
Issued by NWS Little Rock, AR

Home | Current Version | Previous Version | Text Only | Print | Product List | Glossary Off
Versions: 1 2 3 4 5 6 7 8 9 10 11 12 13 14 15 16 17 18 19 20 21 22 23 24 25 26 27 28 29 30 31 32 33 34 35 36 37 38 39 40 41 42 43 44 45 46

000
ASUS44 KLZK 290805
RWRLZK

WEATHER ROUNDUP FOR ARKANSAS
NATIONAL WEATHER SERVICE LITTLE ROCK AR
300 AM CDT WED JUL 29 2015

NOTE: "FAIR" INDICATES FEW OR NO CLOUDS BELOW 12,000 FEET WITH NO
SIGNIFICANT WEATHER AND/OR OBSTRUCTIONS TO VISIBILITY.

ARZ001-003-010-029-290900-
NORTHWEST ARKANSAS

CITY           SKY/WX    TMP DP  RH WIND       PRES   REMARKS
FAYETTEVILLE   CLEAR     74  72  93 S5        30.04S
FORT SMITH     CLEAR     80  71  74 CALM      29.98S
HARRISON       CLEAR     79  70  74 SW3       30.04S
BENTONVILLE    CLEAR     77  72  83 CALM      30.05R
ROGERS         CLEAR     78  72  81 S5        30.05R
SILOAM SPGS    CLEAR     77  68  73 CALM      30.03R
HIGHFILL       CLEAR     77  75  93 CALM      30.04R
$$

ARZ004-005-016-290900-
NORTH CENTRAL ARKANSAS

CITY           SKY/WX    TMP DP  RH WIND       PRES   REMARKS
BATESVILLE     CLEAR     79  73  83 CALM      29.97F
FLIPPIN        CLEAR     77  73  88 CALM      29.98S
MTN HOME       CLEAR     77  74  90 CALM      30.00S
$$

ARZ040-041-290900-
WEST CENTRAL ARKANSAS

CITY           SKY/WX    TMP DP  RH WIND       PRES   REMARKS
MENA           CLEAR     73  72  94 CALM      30.03S
MOUNT IDA      CLEAR     75  72  90 CALM      30.00R
$$

ARZ009-017-025-026-028-290900-
NORTHEAST ARKANSAS

CITY           SKY/WX    TMP DP  RH WIND       PRES   REMARKS
JONESBORO      CLEAR     79  77  94 SW3       29.95F
NEWPORT        CLEAR     82  77  85 SW3       29.97F HX  90
WALNUT RIDGE   CLEAR     82  75  78 SW7       29.96R HX  89
BLYTHEVILLE    CLEAR     82  81  96 CALM      29.96F HX  95
$$

ARZ022-023-033-042-044-290900-
CENTRAL ARKANSAS

CITY           SKY/WX    TMP DP  RH WIND       PRES   REMARKS
LITTLE ROCK    CLEAR     82  76  81 SW6       29.98S HX  89
N LITTLE ROCK    N/A     82  75  80 SW5       29.98S HX  88
JACKSONVILLE   CLEAR     78  75  89 CALM      29.97F
SEARCY         CLEAR     77  76  96 CALM      29.98F
HOT SPRINGS    CLEAR     79  73  82 CALM      30.00S
RUSSELLVILLE   CLEAR     76  74  93 CALM      29.98F
CLINTON        FAIR      75  75 100 CALM      30.01S FOG
$$

ARZ036-290900-
EAST ARKANSAS

CITY           SKY/WX    TMP DP  RH WIND       PRES   REMARKS
WEST MEMPHIS   CLEAR     80  77  90 SW3       29.95F HX  87
$$

ARZ050-053-066-070-073-290900-
SOUTHWEST ARKANSAS

CITY           SKY/WX    TMP DP  RH WIND       PRES   REMARKS
ARKADELPHIA    FAIR      78  78 100 CALM      29.99R
CAMDEN         CLEAR     77  75  94 CALM      29.98R
TEXARKANA      CLEAR     81  71  71 SW3       29.99S HX  85
EL DORADO      CLEAR     77  74  90 CALM      29.99F
DE QUEEN       CLEAR     74  74 100 CALM      29.97F FOG
$$

ARZ056-057-069-290900-
SOUTHEAST ARKANSAS

CITY           SKY/WX    TMP DP  RH WIND       PRES   REMARKS
PINE BLUFF     CLEAR     80  76  87 CALM      29.98F HX  86
STUTTGART      CLEAR     81  75  83 SW6       29.97S HX  86
MONTICELLO     CLEAR     80  75  84 CALM      29.98S HX  85

$$





USA.gov is the U.S. government's official web portal to all federal, state and local government web resources and services.